User: anonymous   Login
Location: Unspecified
(0.0000°N, 0.0000°E)
Time: 23:35:28
(UTC+00:00)
Language:

DOVE 4 - Orbit

View from above orbital plane
View from above orbital plane
View from above satellite
View from above satellite

Ground track
Ground track

The orbit data is extracted from the following two-line orbital elements,

1 39430U 13066Q   24176.83993794  .00001577  00000-0  26874-3 0  9997
2 39430  97.7317  50.7615 0138706 228.1602 130.7694 14.64227507564165
Epoch (UTC): 24 June 2024 20:09:30
Eccentricity: 0.0138706
inclination: 97.7317°
perigee height: 581 km
apogee height: 777 km
right ascension of ascending node: 50.7615°
argument of perigee: 228.1602°
revolutions per day: 14.64227507
mean anomaly at epoch: 130.7694°
orbit number at epoch: 56416

The dashed part of the orbit path shows where the satellite is in the earth's shadow,  

DLR